Regional Weather Roundup
Issued by NWS Memphis, TN

Home | Current Version | Previous Version | Text Only | Print | Product List | Glossary On
Versions: 1 2 3 4 5 6 7 8 9 10 11 12 13 14 15 16 17 18 19 20 21 22 23 24 25 26 27 28 29 30 31 32 33 34 35 36 37 38 39 40 41 42 43 44 45 46 47 48 49 50
000
ASUS44 KMEG 112010
RWRMEG
MEMPHIS CWA HOURLY WEATHER ROUNDUP
NATIONAL WEATHER SERVICE MEMPHIS TN
200 PM CST MON DEC 11 2017

...WEST TENNESSEE...

CITY           SKY/WX    TMP DP  RH WIND       PRES   REMARKS
MEMPHIS INTL   MOSUNNY   65  30  27 SW16G23   29.97F
NWS MEMPHIS      N/A     64 N/A N/A MISG        N/A
JACKSON        SUNNY     65  29  25 SW14G20   29.94F
COVINGTON      SUNNY     64  27  24 SW15G22   29.94F
SOMERVILLE     SUNNY     64  27  24 SW18G24   29.96F
BOLIVAR        SUNNY     66  27  22 S10G17    29.97F
LEXINGTON      SUNNY     63  30  29 SW15      29.95F
SELMER         SUNNY     63  28  27 SW12      29.98F
SAVANNAH       SUNNY     63  28  27 SW9G16    29.98F
DYERSBURG      SUNNY     66  27  23 SW14G26   29.91F
UNION CITY     SUNNY     63  30  29 S17       29.87F
PARIS          SUNNY     61  28  29 S15G22    29.88F
HUNTINGDON     SUNNY     63  28  27 SW13G22   29.90F


...EASTERN ARKANSAS...

CITY           SKY/WX    TMP DP  RH WIND       PRES   REMARKS
JONESBORO      SUNNY     66  34  30 SW24G30   29.90F
WEST MEMPHIS   SUNNY     65  31  28 SW10G21   29.96F
BATESVILLE     SUNNY     70  22  16 SW17G24   29.91F
NEWPORT        SUNNY     69  26  20 SW24      29.90F
WALNUT RIDGE   SUNNY     69  29  22 SW25      29.86F
BLYTHEVILLE    SUNNY     64  37  36 SW23G30   29.91F
NW BLYTHEVILLE SUNNY     64  32  29 SW18G31   29.90F
SEARCY         SUNNY     72  27  18 SW10G20   29.96F
STUTTGART      SUNNY     71  28  20 SW17      29.99F
PINE BLUFF     SUNNY     71  24  17 SW13G24   30.01F
MONTICELLO     SUNNY     71  27  19 W9        30.05F


...NORTH MISSISSIPPI...

CITY           SKY/WX    TMP DP  RH WIND       PRES   REMARKS
TUPELO         SUNNY     63  28  26 S8G17     30.04F
BATESVILLE     SUNNY     64  28  24 SW12G17   30.04F
OLIVE BRANCH   SUNNY     64  27  24 SW16      29.96F
TUNICA           N/A    N/A N/A N/A S14       30.01F
CLARKSDALE     SUNNY     66  36  32 S13       30.04F
CORINTH        SUNNY     64  28  25 SW9G16    30.00F
GREENWOOD      SUNNY     65  35  33 S10       30.07F
COLUMBUS       SUNNY     65  36  34 W8        30.06F
STARKVILLE     SUNNY     64  32  29 SW7       30.08F
GOLDEN TRIANGL SUNNY     65  31  28 W9G21     30.07F


...SOUTHEAST MISSOURI...

CITY           SKY/WX    TMP DP  RH WIND       PRES   REMARKS
KENNETT        SUNNY     64  32  29 SW21G33   29.86F HAZE
MALDEN         MOSUNNY   64  32  29 SW23G29   29.83F
WEST PLAINS    PTSUNNY   66  14  13 W15G30    29.88F
POPLAR BLUFF   SUNNY     63  36  36 S17       29.81F
CAPE GIRARDEAU SUNNY     59  35  40 S18G25    29.79F


...NORTHWEST ALABAMA...

CITY           SKY/WX    TMP DP  RH WIND       PRES   REMARKS
MUSCLE SHOALS  SUNNY     63  29  27 SW14      30.02F


...MIDDLE TENNESSEE...

CITY           SKY/WX    TMP DP  RH WIND       PRES   REMARKS
NASHVILLE      SUNNY     60  30  32 S15G22    29.95F
CLARKSVILLE    SUNNY     58  26  29 SW16G25   29.89F
COLUMBIA       SUNNY     61  30  31 S10G16    29.95F


...WESTERN KENTUCKY...

CITY           SKY/WX    TMP DP  RH WIND       PRES   REMARKS
PADUCAH        MOSUNNY   60  28  29 SW14G23   29.79F
FORT CAMPBELL  SUNNY     58  28  31 SW21      29.87F


...CENTRAL ARKANSAS...

CITY           SKY/WX    TMP DP  RH WIND       PRES   REMARKS
LITTLE ROCK    MOSUNNY   71  24  17 SW15G23   29.99F


SKY/WX REPORTED AS FAIR MEANS FEW OR NO CLOUDS BELOW
12 THOUSAND FEET.





USA.gov is the U.S. government's official web portal to all federal, state and local government web resources and services.